COSMOS 1275 DEB, 42147

Orbit data source: Space-Track

COSMOS 1275 DEB, 42147 is space debris in LEO originally from a launch on Thu, 04 Jun 1981 UTC launched from the Plesetsk Missile And Space Complex (PKMTR). Debris objects in space refer to the collection of defunct objects orbiting the Earth. Examples of debris include non-operational satellites, rocket bodies, and fragments generated from explosions, collisions, or faulty payload assembly.

Loading next visibility...
Identifier
42147, 1981-053RK
Orbit
LEO
Country
Flag of CISCIS
Related business
Manufacturer
Unknown
Mission
Spacecraft
Bus & Motor
Unknown
Mass
Unknown
Launch date (UTC)
1981-06-04 (45 years ago)
Launch vehicle
Unknown
Launch site
Plesetsk Missile And Space Complex (PKMTR)
Object type
Payload
Rocket body
Debris
Shape & HBR
Unknown shape, 0.1 m
Radar Cross Section
Small (<0.1 m²)

Expand to show TLE details & history
Last TLE update: 4 days ago

TLE from 4 days ago
0 COSMOS 1275 DEB
1 42147U 81053RK  26142.65164226  .00001773  00000-0  76705-3 0  9998
2 42147  83.0630 274.1319 0020655 145.9676 214.2837 14.23754470645383
Epoch: 2026-05-22T15:38Z
TLE epoch observation values (Epoch: 2026-05-22T15:38:21.891Z)
Latitude
-0.00002°
Longitude
159.26126°
Altitude
827.939 km
Speed
7.433 km/s
True Right ascension
18h 16m 31s
True Declination
0° 00' 00"
Sunlit
Object was in full shadow at epoch
Visualization orbit readout
Latitude
Unknown
Longitude
Unknown
Altitude
Unknown
Speed
Unknown
Apparent Right ascension
Unknown
Apparent Declination
Unknown
Sunlit
N/A
Visualization observer readout
Local Sidereal Time
20:12:42
Azimuth
Unknown
Elevation
Unknown
Doppler factor
Unknown
Orbital elements
Apogee altitude
824.607 km
Perigee altitude
794.914 km
Semi-major axis
7,187.897 km
Eccentricity
0.00207
Inclination
83.063°
RAAN
274.1319°
Arg. of periapsis
145.9676°
True anomaly
214.15066°
Mean anomaly
214.2837°
Eccentric anomaly
214.21715°
Mean motion
3.56156 °/min
Orbital period
101.08 mins
BSTAR
0.00076705
Loading maneuver chart data...
Computing Atmospheric mass density...
Loading historical data...
Loading historical data...
Loading historical data...
Loading historical data...
Loading historical data...
Loading historical data...
Loading historical data...

Documentation

Showing up to 5 results
|